SL-8 R/B

Satellite information

Favourite Embed

Satellite Type and Status

ROCKET BODYIN ORBIT

Key statistics

Satellite SL-8 R/B at a glance.

Uptime

16048

Days in orbit

Revolutions

≈ 13.8

Per day

Orbit

LEO

Low Earth Orbit

Inclination

83.0

Latest

Satellite identification and parameters

Extended collection of information and parameters for SL-8 R/B.

Object identification

Identified? True

Debris? False

Object name: SL-8 R/B

International designator: 1981-053B

Object number (NORAD): 12508

Object ID (CCSDS): 12508

Country: COMMONWEALTH OF INDEPENDENT STATES (CIS)

Current information (Y/N): Y

RCS size: LARGE

Orbital parameters

Period: 104.606 minutes

Inclination: 82.958 deg

SMA: 7354.127 km

Apoapsis: 1004.422 km

Periapsis: 947.563 km

RAAN: 165.2529 deg

Eccentricy: 0.0038658

Argument of periapsis: 56.3981 deg

Mean anomaly: 304.0856 deg

Mean motion: 13.76594593 rev/day

Mean motion (dot): 0.00000092 rev/day2

B* drag term: 0.000077869 1/REarth

Two-line elements (TLE)

Creation date: May 12, 2025, 2:31 a.m.

Reference frame: TEME

Reference center: EARTH

Epoch: May 11, 2025, 8:09 p.m. UTC

TLE line 0: 0 SL-8 R/B

TLE line 1: 1 12508U 81053B 25131.84021460 .00000092 00000-0 77869-4 0 9992

TLE line 2: 2 12508 82.9580 165.2529 0038658 56.3981 304.0856 13.76594593212195

Live tracking on map

Real-time ground track for satellite SL-8 R/B.

In-orbit conjunctions

A list of the most updated potential collisions computed for object SL-8 R/B.

Target Orbit TCA Probability of collision Miss distance Type
FENGYUN 1C DEB SSO 2024-11-11 17:23:30 0.0002514638 285.0 (m) DEBRIS
FENGYUN 1C DEB SSO 2024-08-14 23:23:06 0.0002430863 305.0 (m) DEBRIS

Associated space launch

Navigation satellite providing location information for the Tsiklon-B navigation system

SL-8 R/B was lifted into orbit during the mission ‘Kosmos-3M | Parus 27’, on board a Kosmos-3M space rocket.

The launch took place on June 4, 1981, 3:41 p.m. from 132/2.

For more information about the launch, click the button.

Launch to space Kosmos-3M | Parus 27
Kosmos-3M | Parus 27

Agency: N/A

Status: Launch Successful

Launch date: June 4, 1981, 3:41 p.m. UTC

Rocket: Kosmos-3M

Launch pad: 132/2

Location: Plesetsk Cosmodrome, Russian Federation

...

Latest news about this satellite

There are no fresh news available about this satellite. Check back as we update our databases every day.


Newsletter sign-up

Weekly statistics, charts and insights to help you stay on top of the space industry.